Hourly Data Report for October 24, 2016

All times are specified in Local Standard Time (LST). Add 1 hour to adjust for Daylight Saving Time where and when it is observed.

WINNIPEG A CS
MANITOBA

49°55'00.000" N
97°14'58.000" W
238.70 m
502S001
71849
XWG

Download Data

Hourly Data (October 2016)
Hourly Data Report for October 24, 2016
Temp Definition
°C
Dew Point Temp Definition
°C
Rel Hum Definition
%
Wind Dir Definition
10's deg

Wind Spd Definition
km/h
Visibility Definition
km
Stn Press Definition
kPa
Hmdx Definition


Wind Chill Definition


Weather Definition


TIME
00:00 0.8 -0.9 88 25 11   99.85     LegendNANA
01:00 1.8 0.0 88 23 13   99.90     LegendNANA
02:00 1.5 0.3 92 24 7   99.91     LegendNANA
03:00 1.1 0.1 93 24 6   99.94     LegendNANA
04:00 0.5 0.0 97 26 8   99.95     LegendNANA
05:00 1.0 0.8 99 25 9   99.97     LegendNANA
06:00 0.4 0.3 100 29 4   100.02     LegendNANA
07:00 -0.6 -0.6 100 28 4   100.02   -2 LegendNANA
08:00 -1.0 -1.0 100 29 3   100.06   -2 LegendNANA
09:00 -0.1 -0.1 100 33 1   100.11   0 LegendNANA
10:00 1.9 1.9 100 32 2   100.12     LegendNANA
11:00 4.8 4.5 98 32 2   100.12     LegendNANA
12:00 7.3 5.1 86 33 5   100.11     LegendNANA
13:00 8.3 4.2 75 1 4   100.06     LegendNANA
14:00 9.3 4.8 73 2 5   100.02     LegendNANA
15:00 9.6 3.8 67   0   99.99     LegendNANA
16:00 9.5 4.2 69 17 3   99.99     LegendNANA
17:00 8.6 4.9 78 4 3   99.98     LegendNANA
18:00 5.4 3.4 87 7 9   99.96     LegendNANA
19:00 4.2 2.7 90 8 9   99.97     LegendNANA
20:00 4.1 2.8 91 9 6   100.00     LegendNANA
21:00 3.3 2.5 95 9 9   100.00     LegendNANA
22:00 2.5 1.8 96 9 10   99.99     LegendNANA
23:00 2.3 1.8 97 9 8   99.97     LegendNANA

Notes on Data Quality.

Legend

  • E = Estimated
  • M = Missing
  • NA = Not Available
  • ‡ = Partner data that is not subject to review by the National Climate Archives
Date modified: